| time (UTC) | temp F | wind direction | speed knots | gust knots | rain 1hr in | rain 24hr in | rain mn in | humidity % | barometer mb |
| 20260906184016 | 65 | 61 | 7.0 | 9.6 | 0.36 | 2.42 | 2.42 | 91 | 1017.7 |
| 20260906183506 | 64 | 72 | 6.1 | 8.7 | 0.49 | 2.42 | 2.42 | 90 | 1017.9 |
| 20260906183035 | 64 | 88 | 3.5 | 7.8 | 0.56 | 2.41 | 2.41 | 90 | 1018.9 |
| 20260906182508 | 64 | 122 | 0.9 | 3.5 | 0.69 | 2.38 | 2.38 | 90 | 1019.4 |
| 20260906182005 | 65 | 122 | 0.0 | 3.5 | 0.94 | 2.35 | 2.35 | 90 | 1019.8 |
| 20260906181535 | 65 | 67 | 2.6 | 7.8 | 1.29 | 2.33 | 2.33 | 90 | 1019.9 |
| 20260906181003 | 65 | 322 | 1.7 | 10.4 | 1.39 | 2.29 | 2.29 | 90 | 1019.8 |
| 20260906180508 | 65 | 224 | 5.2 | 10.4 | 1.43 | 2.21 | 2.21 | 90 | 1020.4 |
| 20260906180038 | 65 | 206 | 5.2 | 7.8 | 1.66 | 2.19 | 2.19 | 90 | 1020.6 |
| 20260906175505 | 66 | 300 | 3.5 | 7.0 | 2.00 | 2.18 | 2.18 | 90 | 1020.0 |
| 20260906175009 | 66 | 25 | 4.3 | 10.4 | 2.11 | 2.18 | 2.18 | 90 | 1020.0 |
| 20260906174536 | 66 | 308 | 1.7 | 14.8 | 2.14 | 2.15 | 2.15 | 90 | 1019.8 |
| 20260906174004 | 66 | 300 | 9.6 | 14.8 | 2.05 | 2.06 | 2.06 | 90 | 1020.5 |
| 20260906173507 | 66 | 263 | 6.1 | 13.0 | 1.93 | 1.93 | 1.93 | 90 | 1020.1 |
| 20260906173029 | 66 | 297 | 6.1 | 13.0 | 1.85 | 1.85 | 1.85 | 90 | 1019.6 |
| 20260906172503 | 66 | 65 | 4.3 | 17.4 | 1.69 | 1.69 | 1.69 | 89 | 1018.9 |
| 20260906172010 | 66 | 78 | 8.7 | 17.4 | 1.42 | 1.42 | 1.42 | 89 | 1018.3 |
| 20260906171530 | 66 | 104 | 9.6 | 21.7 | 1.04 | 1.04 | 1.04 | 88 | 1018.8 |
| 20260906171006 | 66 | 77 | 13.0 | 22.6 | 0.90 | 0.90 | 0.90 | 87 | 1018.9 |
| 20260906170514 | 66 | 92 | 13.9 | 22.6 | 0.78 | 0.78 | 0.78 | 86 | 1018.0 |
| 20260906170029 | 67 | 65 | 13.9 | 20.9 | 0.52 | 0.52 | 0.52 | 84 | 1018.0 |
| 20260906165506 | 67 | 50 | 11.3 | 15.6 | 0.18 | 0.18 | 0.18 | 84 | 1019.1 |
| 20260906165016 | 67 | 279 | 3.5 | 16.5 | 0.06 | 0.06 | 0.06 | 85 | 1019.2 |
| 20260906164540 | 67 | 142 | 7.0 | 20.0 | 0.01 | 0.01 | 0.01 | 83 | 1018.8 |
| 20260906164006 | 67 | 67 | 8.7 | 20.0 | 0.01 | 0.01 | 0.01 | 82 | 1018.5 |
| 20260906163513 | 68 | 83 | 8.7 | 19.1 | 0.00 | 0.00 | 0.00 | 83 | 1018.5 |
| 20260906163044 | 68 | 112 | 5.2 | 21.7 | 0.00 | 0.00 | 0.00 | 81 | 1018.5 |
| 20260906162509 | 69 | 71 | 15.6 | 21.7 | 0.00 | 0.00 | 0.00 | 78 | 1018.3 |
| 20260906162010 | 71 | 73 | 11.3 | 26.9 | 0.00 | 0.00 | 0.00 | 1018.8 | |
| 20260906161533 | 72 | 61 | 17.4 | 26.9 | 0.00 | 0.00 | 0.00 | 84 | 1018.5 |
| 20260906161006 | 73 | 69 | 13.0 | 21.7 | 0.00 | 0.00 | 0.00 | 86 | 1017.9 |
| 20260906160514 | 74 | 92 | 13.9 | 18.2 | 0.00 | 0.00 | 0.00 | 85 | 1017.6 |
| 20260906160047 | 75 | 69 | 8.7 | 14.8 | 0.00 | 0.00 | 0.00 | 86 | 1017.4 |
| 20260906155507 | 75 | 74 | 4.3 | 7.8 | 0.00 | 0.00 | 0.00 | 86 | 1017.2 |
| 20260906155015 | 75 | 74 | 4.3 | 7.0 | 0.00 | 0.00 | 0.00 | 86 | 1016.8 |
| 20260906154514 | 75 | 101 | 1.7 | 5.2 | 0.00 | 0.00 | 0.00 | 86 | 1016.8 |
| 20260906154012 | 75 | 186 | 0.9 | 5.2 | 0.00 | 0.00 | 0.00 | 86 | 1016.7 |
| 20260906153515 | 75 | 213 | 1.7 | 6.1 | 0.00 | 0.00 | 0.00 | 86 | 1016.6 |
| 20260906153015 | 75 | 182 | 2.6 | 7.8 | 0.00 | 0.00 | 0.00 | 86 | 1016.4 |
| 20260906152513 | 75 | 140 | 3.5 | 7.8 | 0.00 | 0.01 | 0.00 | 86 | 1016.6 |
| 20260906152020 | 75 | 117 | 1.7 | 7.0 | 0.00 | 0.01 | 0.00 | 88 | 1016.3 |
| 20260906151514 | 74 | 99 | 3.5 | 7.0 | 0.00 | 0.01 | 0.00 | 88 | 1016.2 |
| 20260906151010 | 74 | 172 | 2.6 | 7.0 | 0.00 | 0.01 | 0.00 | 88 | 1016.1 |
| 20260906150519 | 74 | 123 | 2.6 | 7.8 | 0.00 | 0.02 | 0.00 | 88 | 1016.0 |
| 20260906150035 | 73 | 161 | 2.6 | 8.7 | 0.00 | 0.02 | 0.00 | 89 | 1016.1 |
| 20260906145511 | 73 | 200 | 2.6 | 8.7 | 0.00 | 0.03 | 0.00 | 89 | 1016.0 |
| 20260906145014 | 73 | 195 | 2.6 | 8.7 | 0.00 | 0.04 | 0.00 | 90 | 1016.2 |
| 20260906144532 | 73 | 164 | 3.5 | 8.7 | 0.00 | 0.04 | 0.00 | 90 | 1016.3 |
| 20260906144010 | 73 | 152 | 1.7 | 8.7 | 0.00 | 0.05 | 0.00 | 90 | 1016.4 |
| 20260906143516 | 73 | 138 | 2.6 | 7.0 | 0.00 | 0.05 | 0.00 | 90 | 1016.4 |
| 20260906143025 | 73 | 192 | 2.6 | 7.0 | 0.00 | 0.05 | 0.00 | 90 | 1016.5 |
| 20260906142515 | 73 | 188 | 2.6 | 7.0 | 0.00 | 0.06 | 0.00 | 90 | 1016.6 |
| 20260906142017 | 72 | 145 | 2.6 | 7.8 | 0.00 | 0.06 | 0.00 | 91 | 1016.7 |
| 20260906141507 | 72 | 141 | 4.3 | 7.8 | 0.00 | 0.06 | 0.00 | 91 | 1016.7 |
| 20260906141004 | 72 | 157 | 2.6 | 7.0 | 0.00 | 0.06 | 0.00 | 91 | 1016.6 |
| 20260906140504 | 72 | 155 | 3.5 | 7.8 | 0.00 | 0.06 | 0.00 | 91 | 1016.6 |
| 20260906140010 | 72 | 198 | 3.5 | 7.8 | 0.00 | 0.06 | 0.00 | 91 | 1016.6 |
| 20260906135502 | 72 | 210 | 2.6 | 7.0 | 0.00 | 0.07 | 0.00 | 91 | 1016.5 |
| 20260906135003 | 72 | 163 | 2.6 | 7.0 | 0.00 | 0.10 | 0.00 | 91 | 1016.5 |
| 20260906134509 | 72 | 132 | 2.6 | 7.0 | 0.00 | 0.17 | 0.00 | 1016.5 | |
| 20260906134003 | 72 | 126 | 2.6 | 8.7 | 0.00 | 0.27 | 0.00 | 1016.4 | |
| 20260906133506 | 72 | 170 | 2.6 | 8.7 | 0.00 | 0.30 | 0.00 | 91 | 1016.4 |
| 20260906133012 | 72 | 164 | 3.5 | 8.7 | 0.00 | 0.37 | 0.00 | 91 | 1016.3 |
| 20260906132503 | 72 | 172 | 4.3 | 8.7 | 0.00 | 0.43 | 0.00 | 91 | 1016.3 |
| 20260906132005 | 72 | 153 | 3.5 | 8.7 | 0.00 | 0.49 | 0.00 | 91 | 1016.3 |
| 20260906131516 | 72 | 155 | 1.7 | 8.7 | 0.00 | 0.51 | 0.00 | 91 | 1016.4 |
| 20260906131004 | 72 | 100 | 3.5 | 9.6 | 0.00 | 0.51 | 0.00 | 91 | 1016.3 |
| 20260906130503 | 72 | 174 | 2.6 | 9.6 | 0.00 | 0.51 | 0.00 | 91 | 1016.3 |
| 20260906130004 | 72 | 164 | 2.6 | 9.6 | 0.00 | 0.51 | 0.00 | 91 | 1016.3 |
| 20260906125504 | 72 | 126 | 3.5 | 7.8 | 0.00 | 0.51 | 0.00 | 91 | 1016.3 |
| 20260906125005 | 72 | 101 | 1.7 | 6.1 | 0.00 | 0.51 | 0.00 | 1016.3 | |
| 20260906124504 | 72 | 153 | 1.7 | 6.1 | 0.00 | 0.51 | 0.00 | 1016.3 | |
| 20260906124004 | 72 | 103 | 1.7 | 6.1 | 0.00 | 0.51 | 0.00 | 91 | 1016.3 |
| 20260906123506 | 72 | 165 | 1.7 | 6.1 | 0.00 | 0.51 | 0.00 | 91 | 1016.3 |
| 20260906123007 | 72 | 153 | 0.9 | 6.1 | 0.00 | 0.51 | 0.00 | 91 | 1016.3 |
| 20260906122504 | 72 | 161 | 1.7 | 7.0 | 0.00 | 0.51 | 0.00 | 91 | 1016.3 |
| 20260906122006 | 72 | 138 | 1.7 | 7.0 | 0.00 | 0.51 | 0.00 | 91 | 1016.1 |
| 20260906121504 | 72 | 167 | 2.6 | 7.0 | 0.00 | 0.51 | 0.00 | 91 | 1016.1 |
| 20260906121005 | 72 | 196 | 1.7 | 8.7 | 0.00 | 0.51 | 0.00 | 91 | 1016.0 |
| 20260906120508 | 71 | 153 | 1.7 | 8.7 | 0.00 | 0.51 | 0.00 | 91 | 1015.9 |
| 20260906120006 | 71 | 132 | 0.9 | 7.8 | 0.00 | 0.51 | 0.00 | 91 | 1015.8 |
| 20260906115504 | 71 | 176 | 1.7 | 7.0 | 0.00 | 0.51 | 0.00 | 91 | 1015.8 |
| 20260906115007 | 71 | 190 | 2.6 | 9.6 | 0.00 | 0.51 | 0.00 | 91 | 1015.6 |
| 20260906114507 | 72 | 134 | 4.3 | 9.6 | 0.00 | 0.51 | 0.00 | 91 | 1015.6 |
| 20260906114011 | 72 | 149 | 2.6 | 7.8 | 0.00 | 0.51 | 0.00 | 91 | 1015.6 |
| 20260906113507 | 71 | 134 | 2.6 | 7.8 | 0.00 | 0.51 | 0.00 | 91 | 1015.6 |
| 20260906113007 | 72 | 178 | 1.7 | 7.0 | 0.00 | 0.51 | 0.00 | 91 | 1015.6 |
| 20260906112506 | 72 | 147 | 2.6 | 6.1 | 0.00 | 0.51 | 0.00 | 91 | 1015.5 |
| 20260906112006 | 72 | 162 | 1.7 | 6.1 | 0.00 | 0.51 | 0.00 | 91 | 1015.3 |
| 20260906111511 | 72 | 157 | 2.6 | 6.1 | 0.00 | 0.51 | 0.00 | 91 | 1015.4 |
| 20260906111006 | 72 | 119 | 1.7 | 6.1 | 0.00 | 0.51 | 0.00 | 91 | 1015.5 |
| 20260906110507 | 72 | 144 | 2.6 | 6.1 | 0.00 | 0.51 | 0.00 | 91 | 1015.4 |
| 20260906110016 | 72 | 114 | 2.6 | 6.1 | 0.00 | 0.51 | 0.00 | 91 | 1015.5 |
| 20260906105506 | 72 | 161 | 1.7 | 7.8 | 0.00 | 0.51 | 0.00 | 91 | 1015.5 |
| 20260906105012 | 72 | 162 | 1.7 | 7.8 | 0.00 | 0.51 | 0.00 | 91 | 1015.4 |
| 20260906104517 | 72 | 151 | 1.7 | 7.8 | 0.00 | 0.51 | 0.00 | 91 | 1015.3 |
| 20260906104006 | 72 | 126 | 2.6 | 7.0 | 0.00 | 0.51 | 0.00 | 91 | 1015.4 |
| 20260906103508 | 72 | 95 | 1.7 | 7.0 | 0.00 | 0.51 | 0.00 | 91 | 1015.5 |
| 20260906103013 | 72 | 174 | 2.6 | 6.1 | 0.00 | 0.51 | 0.00 | 91 | 1015.5 |
| 20260906102507 | 72 | 146 | 0.9 | 7.0 | 0.00 | 0.51 | 0.00 | 91 | 1015.5 |
| 20260906102004 | 72 | 177 | 1.7 | 7.0 | 0.00 | 0.51 | 0.00 | 91 | 1015.6 |
| 20260906101515 | 72 | 63 | 1.7 | 6.1 | 0.00 | 0.51 | 0.00 | 91 | 1015.7 |
| 20260906101007 | 72 | 175 | 1.7 | 6.1 | 0.00 | 0.51 | 0.00 | 91 | 1015.6 |
| 20260906100503 | 72 | 174 | 1.7 | 6.1 | 0.00 | 0.51 | 0.00 | 90 | 1015.7 |
| 20260906100018 | 72 | 142 | 1.7 | 6.1 | 0.00 | 0.51 | 0.00 | 91 | 1015.8 |
| 20260906095506 | 72 | 110 | 1.7 | 6.1 | 0.00 | 0.51 | 0.00 | 90 | 1015.8 |
| 20260906095006 | 72 | 140 | 2.6 | 6.1 | 0.00 | 0.51 | 0.00 | 90 | 1015.8 |
| 20260906094527 | 72 | 182 | 1.7 | 6.1 | 0.00 | 0.51 | 0.00 | 90 | 1015.7 |
| 20260906094011 | 72 | 80 | 2.6 | 7.8 | 0.00 | 0.51 | 0.00 | 90 | 1015.7 |
| 20260906093506 | 72 | 120 | 2.6 | 7.8 | 0.00 | 0.51 | 0.00 | 90 | 1015.7 |
| 20260906093024 | 72 | 186 | 2.6 | 7.0 | 0.00 | 0.51 | 0.00 | 1015.8 | |
| 20260906092508 | 72 | 181 | 1.7 | 4.3 | 0.00 | 0.51 | 0.00 | 1015.8 | |
| 20260906092004 | 72 | 115 | 1.7 | 5.2 | 0.00 | 0.51 | 0.00 | 90 | 1015.8 |
| 20260906091523 | 72 | 109 | 1.7 | 7.0 | 0.00 | 0.51 | 0.00 | 90 | 1015.7 |
| 20260906091010 | 72 | 184 | 1.7 | 7.0 | 0.00 | 0.51 | 0.00 | 90 | 1015.6 |
| 20260906090506 | 72 | 103 | 0.9 | 7.0 | 0.00 | 0.51 | 0.00 | 90 | 1015.6 |
| 20260906090024 | 73 | 120 | 0.9 | 7.0 | 0.00 | 0.51 | 0.00 | 90 | 1015.5 |
| 20260906085510 | 73 | 145 | 2.6 | 8.7 | 0.00 | 0.51 | 0.00 | 90 | 1015.5 |
| 20260906085008 | 73 | 176 | 2.6 | 8.7 | 0.00 | 0.51 | 0.00 | 90 | 1015.3 |
| 20260906084530 | 73 | 116 | 1.7 | 8.7 | 0.00 | 0.51 | 0.00 | 90 | 1015.3 |
| 20260906084013 | 73 | 123 | 2.6 | 8.7 | 0.00 | 0.51 | 0.00 | 90 | 1015.3 |
| 20260906083507 | 73 | 165 | 1.7 | 7.0 | 0.00 | 0.51 | 0.00 | 90 | 1015.4 |
| 20260906083024 | 73 | 188 | 1.7 | 7.0 | 0.00 | 0.51 | 0.00 | 90 | 1015.3 |
| 20260906082511 | 73 | 132 | 1.7 | 7.0 | 0.00 | 0.51 | 0.00 | 90 | 1015.3 |
| 20260906082011 | 73 | 66 | 1.7 | 7.8 | 0.00 | 0.51 | 0.00 | 90 | 1015.3 |
| 20260906081539 | 73 | 55 | 1.7 | 7.0 | 0.00 | 0.51 | 0.00 | 90 | 1015.3 |
| 20260906081010 | 73 | 172 | 1.7 | 7.0 | 0.00 | 0.51 | 0.00 | 90 | 1015.2 |
| 20260906080508 | 73 | 34 | 2.6 | 6.1 | 0.00 | 0.51 | 0.00 | 90 | 1015.2 |
| 20260906080027 | 73 | 163 | 2.6 | 6.1 | 0.00 | 0.51 | 0.00 | 90 | 1015.2 |
| 20260906075512 | 73 | 65 | 0.0 | 7.0 | 0.00 | 0.51 | 0.00 | 90 | 1015.3 |
| 20260906075008 | 73 | 106 | 0.0 | 7.0 | 0.00 | 0.51 | 0.00 | 90 | 1015.3 |
| 20260906074526 | 73 | 128 | 0.9 | 6.1 | 0.00 | 0.51 | 0.00 | 90 | 1015.3 |
| 20260906074003 | 73 | 137 | 1.7 | 6.1 | 0.00 | 0.51 | 0.00 | 90 | 1015.3 |
| 20260906073511 | 73 | 101 | 1.7 | 5.2 | 0.00 | 0.51 | 0.00 | 90 | 1015.3 |
| 20260906073029 | 73 | 77 | 0.9 | 7.0 | 0.00 | 0.51 | 0.00 | 90 | 1015.3 |
| 20260906072507 | 73 | 22 | 0.9 | 7.0 | 0.00 | 0.51 | 0.00 | 90 | 1015.3 |
| 20260906072011 | 73 | 127 | 1.7 | 6.1 | 0.00 | 0.51 | 0.00 | 90 | 1015.3 |
| 20260906071528 | 73 | 132 | 1.7 | 5.2 | 0.00 | 0.51 | 0.00 | 90 | 1015.4 |
| 20260906071006 | 73 | 87 | 0.9 | 6.1 | 0.00 | 0.51 | 0.00 | 90 | 1015.3 |
| 20260906070515 | 73 | 101 | 1.7 | 6.1 | 0.00 | 0.51 | 0.00 | 90 | 1015.4 |
| 20260906070008 | 73 | 96 | 1.7 | 4.3 | 0.00 | 0.51 | 0.00 | 90 | 1015.4 |
| 20260906065507 | 73 | 360 | 0.9 | 6.1 | 0.00 | 0.51 | 0.00 | 90 | 1015.5 |
| 20260906065003 | 73 | 99 | 1.7 | 6.1 | 0.00 | 0.51 | 0.00 | 90 | 1015.5 |
| 20260906064508 | 73 | 150 | 1.7 | 7.0 | 0.00 | 0.51 | 0.00 | 90 | 1015.6 |
| 20260906064008 | 73 | 126 | 1.7 | 7.0 | 0.00 | 0.51 | 0.00 | 90 | 1015.6 |
| 20260906063503 | 73 | 150 | 1.7 | 6.1 | 0.00 | 0.51 | 0.00 | 1015.6 | |
| 20260906063008 | 73 | 118 | 2.6 | 6.1 | 0.00 | 0.51 | 0.00 | 90 | 1015.5 |
| 20260906062513 | 73 | 123 | 0.0 | 3.5 | 0.00 | 0.51 | 0.00 | 90 | 1015.5 |
| 20260906062003 | 73 | 92 | 0.9 | 3.5 | 0.00 | 0.51 | 0.00 | 90 | 1015.5 |
| 20260906061516 | 73 | 83 | 0.9 | 3.5 | 0.00 | 0.51 | 0.00 | 89 | 1015.5 |
| 20260906061011 | 73 | 152 | 0.9 | 3.5 | 0.00 | 0.51 | 0.00 | 89 | 1015.5 |
| 20260906060504 | 73 | 159 | 0.0 | 3.5 | 0.00 | 0.51 | 0.00 | 89 | 1015.4 |
| 20260906060011 | 73 | 191 | 0.9 | 4.3 | 0.00 | 0.51 | 0.00 | 89 | 1015.4 |
| 20260906055511 | 73 | 141 | 0.9 | 4.3 | 0.00 | 0.51 | 0.00 | 89 | 1015.5 |
| 20260906055003 | 73 | 170 | 0.9 | 4.3 | 0.00 | 0.51 | 0.00 | 1015.4 | |
| 20260906054516 | 73 | 148 | 0.9 | 2.6 | 0.00 | 0.51 | 0.00 | 89 | 1015.4 |
| 20260906054010 | 73 | 170 | 0.9 | 2.6 | 0.00 | 0.51 | 0.00 | 89 | 1015.2 |
| 20260906053504 | 74 | 83 | 0.0 | 2.6 | 0.00 | 0.51 | 0.00 | 89 | 1015.3 |
| 20260906053018 | 74 | 155 | 0.9 | 3.5 | 0.00 | 0.51 | 0.00 | 89 | 1015.3 |
| 20260906052513 | 74 | 186 | 0.9 | 3.5 | 0.00 | 0.51 | 0.00 | 89 | 1015.2 |
| 20260906052004 | 74 | 87 | 0.9 | 3.5 | 0.00 | 0.51 | 0.00 | 89 | 1015.2 |
| 20260906051516 | 74 | 98 | 0.9 | 5.2 | 0.00 | 0.51 | 0.00 | 88 | 1015.2 |
| 20260906051002 | 74 | 118 | 0.9 | 5.2 | 0.00 | 0.51 | 0.00 | 88 | 1015.2 |
| 20260906050504 | 74 | 172 | 0.9 | 5.2 | 0.00 | 0.51 | 0.00 | 88 | 1015.3 |
| 20260906050022 | 74 | 121 | 0.9 | 3.5 | 0.00 | 0.51 | 0.00 | 88 | 1015.2 |
| 20260906045503 | 74 | 130 | 0.9 | 4.3 | 0.00 | 0.51 | 0.51 | 88 | 1015.3 |
| 20260906045004 | 74 | 115 | 0.9 | 4.3 | 0.00 | 0.51 | 0.51 | 88 | 1015.3 |
| 20260906044526 | 74 | 126 | 0.9 | 3.5 | 0.00 | 0.51 | 0.51 | 88 | 1015.3 |
| 20260906044003 | 74 | 182 | 0.0 | 5.2 | 0.00 | 0.51 | 0.51 | 88 | 1015.5 |
| 20260906043509 | 74 | 150 | 0.9 | 5.2 | 0.00 | 0.51 | 0.51 | 88 | 1015.4 |
| 20260906043023 | 74 | 117 | 0.9 | 3.5 | 0.00 | 0.51 | 0.51 | 88 | 1015.4 |
| 20260906042503 | 74 | 138 | 0.9 | 3.5 | 0.00 | 0.51 | 0.51 | 88 | 1015.3 |
| 20260906042007 | 74 | 126 | 0.9 | 3.5 | 0.00 | 0.51 | 0.51 | 88 | 1015.3 |
| 20260906041524 | 74 | 157 | 0.9 | 3.5 | 0.00 | 0.51 | 0.51 | 88 | 1015.2 |
| 20260906041004 | 74 | 143 | 0.0 | 2.6 | 0.00 | 0.51 | 0.51 | 88 | 1015.3 |
| 20260906040507 | 74 | 121 | 0.9 | 2.6 | 0.00 | 0.51 | 0.51 | 88 | 1015.2 |
| 20260906040033 | 74 | 122 | 0.0 | 2.6 | 0.00 | 0.51 | 0.51 | 88 | 1015.1 |
| 20260906035503 | 74 | 172 | 0.9 | 2.6 | 0.00 | 0.51 | 0.51 | 88 | 1015.1 |
| 20260906035009 | 74 | 145 | 0.9 | 2.6 | 0.00 | 0.51 | 0.51 | 88 | 1015.0 |
| 20260906034527 | 74 | 61 | 0.0 | 2.6 | 0.00 | 0.51 | 0.51 | 88 | 1015.0 |
| 20260906034002 | 74 | 77 | 0.0 | 2.6 | 0.00 | 0.51 | 0.51 | 88 | 1015.1 |
| 20260906033510 | 74 | 148 | 0.9 | 3.5 | 0.00 | 0.51 | 0.51 | 88 | 1015.1 |
| 20260906033027 | 74 | 119 | 0.0 | 3.5 | 0.00 | 0.51 | 0.51 | 88 | 1015.1 |
| 20260906032502 | 74 | 175 | 0.9 | 4.3 | 0.00 | 0.51 | 0.51 | 87 | 1015.1 |
| 20260906032009 | 74 | 123 | 0.0 | 5.2 | 0.00 | 0.51 | 0.51 | 87 | 1015.2 |
| 20260906031542 | 74 | 52 | 0.9 | 5.2 | 0.00 | 0.51 | 0.51 | 87 | 1015.2 |
| 20260906031004 | 74 | 101 | 1.7 | 4.3 | 0.00 | 0.51 | 0.51 | 87 | 1015.3 |
| 20260906030514 | 74 | 77 | 1.7 | 4.3 | 0.00 | 0.51 | 0.51 | 86 | 1015.3 |
| 20260906030029 | 74 | 56 | 1.7 | 3.5 | 0.00 | 0.51 | 0.51 | 86 | 1015.3 |
| 20260906025506 | 74 | 82 | 1.7 | 3.5 | 0.00 | 0.51 | 0.51 | 86 | 1015.4 |
| 20260906025013 | 74 | 169 | 0.9 | 3.5 | 0.00 | 0.51 | 0.51 | 86 | 1015.4 |
| 20260906024530 | 74 | 100 | 0.0 | 2.6 | 0.00 | 0.51 | 0.51 | 86 | 1015.3 |
| 20260906024005 | 74 | 132 | 0.9 | 3.5 | 0.00 | 0.51 | 0.51 | 86 | 1015.2 |
| 20260906023512 | 74 | 121 | 0.9 | 3.5 | 0.00 | 0.51 | 0.51 | 86 | 1015.3 |
| 20260906023004 | 75 | 103 | 0.9 | 2.6 | 0.00 | 0.51 | 0.51 | 85 | 1015.3 |
| 20260906022506 | 74 | 121 | 0.9 | 3.5 | 0.00 | 0.51 | 0.51 | 85 | 1015.1 |
| 20260906022012 | 75 | 85 | 1.7 | 3.5 | 0.00 | 0.51 | 0.51 | 85 | 1015.2 |
| 20260906021508 | 75 | 67 | 1.7 | 4.3 | 0.00 | 0.51 | 0.51 | 85 | 1015.2 |
| 20260906021006 | 75 | 93 | 1.7 | 4.3 | 0.00 | 0.51 | 0.51 | 85 | 1015.1 |
| 20260906020512 | 75 | 80 | 2.6 | 4.3 | 0.00 | 0.51 | 0.51 | 85 | 1015.1 |
| 20260906020007 | 75 | 106 | 1.7 | 4.3 | 0.00 | 0.51 | 0.51 | 85 | 1015.0 |
| 20260906015513 | 75 | 65 | 1.7 | 5.2 | 0.00 | 0.51 | 0.51 | 84 | 1015.0 |
| 20260906015012 | 75 | 90 | 2.6 | 5.2 | 0.00 | 0.51 | 0.51 | 84 | 1015.1 |
| 20260906014507 | 75 | 67 | 1.7 | 3.5 | 0.00 | 0.51 | 0.51 | 84 | 1014.9 |
| 20260906014012 | 75 | 96 | 0.9 | 3.5 | 0.00 | 0.51 | 0.51 | 84 | 1014.9 |
| 20260906013514 | 75 | 103 | 0.9 | 3.5 | 0.00 | 0.51 | 0.51 | 83 | 1014.8 |
| 20260906013011 | 75 | 115 | 0.9 | 3.5 | 0.00 | 0.51 | 0.51 | 82 | 1014.8 |
| 20260906012510 | 76 | 113 | 0.9 | 3.5 | 0.00 | 0.51 | 0.51 | 82 | 1014.8 |
| 20260906012014 | 75 | 102 | 1.7 | 3.5 | 0.00 | 0.51 | 0.51 | 82 | 1014.9 |
| 20260906011515 | 75 | 121 | 0.9 | 2.6 | 0.00 | 0.51 | 0.51 | 82 | 1014.7 |
| 20260906011017 | 75 | 111 | 0.9 | 3.5 | 0.00 | 0.51 | 0.51 | 82 | 1014.6 |
| 20260906010516 | 75 | 134 | 0.9 | 6.1 | 0.00 | 0.51 | 0.51 | 81 | 1014.5 |
| 20260906010014 | 76 | 140 | 1.7 | 6.1 | 0.00 | 0.51 | 0.51 | 81 | 1014.4 |
| 20260906005509 | 76 | 143 | 1.7 | 3.5 | 0.00 | 0.51 | 0.51 | 80 | 1014.3 |
| 20260906005013 | 76 | 80 | 1.7 | 3.5 | 0.00 | 0.51 | 0.51 | 79 | 1014.3 |
| 20260906004517 | 77 | 123 | 0.0 | 3.5 | 0.00 | 0.51 | 0.51 | 79 | 1014.2 |
| 20260906004010 | 77 | 87 | 0.0 | 2.6 | 0.00 | 0.51 | 0.51 | 77 | 1014.2 |
| 20260906003514 | 77 | 114 | 0.9 | 2.6 | 0.00 | 0.51 | 0.51 | 77 | 1014.3 |
| 20260906003022 | 78 | 134 | 0.9 | 2.6 | 0.00 | 0.51 | 0.51 | 76 | 1014.2 |
| 20260906002514 | 78 | 52 | 0.9 | 3.5 | 0.00 | 0.51 | 0.51 | 75 | 1014.2 |
| 20260906002018 | 79 | 135 | 0.9 | 4.3 | 0.00 | 0.51 | 0.51 | 74 | 1014.2 |
| 20260906001516 | 79 | 132 | 0.9 | 6.1 | 0.00 | 0.51 | 0.51 | 73 | 1014.3 |
| 20260906001011 | 80 | 112 | 1.7 | 6.1 | 0.00 | 0.51 | 0.51 | 72 | 1014.3 |
| 20260906000517 | 80 | 109 | 1.7 | 4.3 | 0.00 | 0.51 | 0.51 | 71 | 1014.5 |
| 20260906000020 | 80 | 134 | 1.7 | 6.1 | 0.00 | 0.51 | 0.51 | 70 | 1014.5 |
| 20260905235515 | 81 | 144 | 0.9 | 7.0 | 0.00 | 0.51 | 0.51 | 69 | 1014.5 |
| 20260905235004 | 81 | 121 | 2.6 | 7.0 | 0.00 | 0.51 | 0.51 | 69 | 1014.5 |
| 20260905234522 | 81 | 134 | 0.9 | 7.0 | 0.00 | 0.51 | 0.51 | 68 | 1014.5 |
| 20260905234017 | 81 | 132 | 0.9 | 7.0 | 0.00 | 0.51 | 0.51 | 68 | 1014.5 |
| 20260905233507 | 81 | 167 | 2.6 | 9.6 | 0.00 | 0.51 | 0.51 | 68 | 1014.4 |
| 20260905233029 | 82 | 157 | 1.7 | 9.6 | 0.00 | 0.51 | 0.51 | 67 | 1014.3 |
| 20260905232515 | 82 | 117 | 2.6 | 10.4 | 0.00 | 0.51 | 0.51 | 67 | 1014.3 |
| 20260905232003 | 82 | 207 | 2.6 | 10.4 | 0.00 | 0.51 | 0.51 | 65 | 1014.2 |
| 20260905231526 | 83 | 129 | 1.7 | 7.0 | 0.00 | 0.51 | 0.51 | 66 | 1014.2 |
| 20260905231013 | 83 | 113 | 1.7 | 8.7 | 0.00 | 0.51 | 0.51 | 65 | 1014.1 |
| 20260905230507 | 83 | 63 | 1.7 | 8.7 | 0.00 | 0.51 | 0.51 | 64 | 1014.2 |
| 20260905230028 | 83 | 123 | 2.6 | 9.6 | 0.00 | 0.51 | 0.51 | 64 | 1014.2 |
| 20260905225515 | 83 | 58 | 2.6 | 9.6 | 0.00 | 0.51 | 0.51 | 64 | 1014.2 |
| 20260905225008 | 83 | 106 | 2.6 | 8.7 | 0.00 | 0.51 | 0.51 | 64 | 1014.1 |
| 20260905224526 | 84 | 136 | 2.6 | 7.0 | 0.00 | 0.51 | 0.51 | 63 | 1014.1 |
| 20260905224015 | 84 | 96 | 2.6 | 7.0 | 0.00 | 0.51 | 0.51 | 62 | 1014.1 |
| 20260905223509 | 84 | 166 | 1.7 | 8.7 | 0.00 | 0.51 | 0.51 | 62 | 1014.1 |
| 20260905223036 | 84 | 360 | 2.6 | 8.7 | 0.00 | 0.51 | 0.51 | 62 | 1014.1 |
| 20260905222515 | 84 | 115 | 3.5 | 8.7 | 0.00 | 0.51 | 0.51 | 63 | 1014.2 |
| 20260905222009 | 84 | 99 | 4.3 | 9.6 | 0.00 | 0.51 | 0.51 | 60 | 1014.2 |
| 20260905221542 | 84 | 107 | 2.6 | 9.6 | 0.00 | 0.51 | 0.51 | 61 | 1014.1 |
| 20260905221015 | 85 | 100 | 3.5 | 7.8 | 0.00 | 0.51 | 0.51 | 61 | 1014.2 |
| 20260905220510 | 85 | 135 | 3.5 | 7.8 | 0.00 | 0.51 | 0.51 | 61 | 1014.1 |
| 20260905220031 | 85 | 140 | 1.7 | 9.6 | 0.00 | 0.51 | 0.51 | 60 | 1014.0 |
| 20260905215522 | 85 | 196 | 0.9 | 10.4 | 0.00 | 0.51 | 0.51 | 62 | 1014.0 |
| 20260905215011 | 85 | 150 | 3.5 | 10.4 | 0.00 | 0.51 | 0.51 | 60 | 1013.9 |
| 20260905214528 | 85 | 135 | 3.5 | 10.4 | 0.00 | 0.51 | 0.51 | 59 | 1013.9 |
| 20260905214016 | 85 | 77 | 1.7 | 10.4 | 0.00 | 0.51 | 0.51 | 60 | 1014.0 |
| 20260905213511 | 86 | 88 | 3.5 | 10.4 | 0.00 | 0.51 | 0.51 | 58 | 1014.0 |
| 20260905213035 | 86 | 149 | 2.6 | 9.6 | 0.00 | 0.51 | 0.51 | 60 | 1013.9 |
| 20260905212520 | 86 | 111 | 3.5 | 8.7 | 0.00 | 0.51 | 0.51 | 60 | 1013.7 |
| 20260905212013 | 86 | 173 | 3.5 | 8.7 | 0.00 | 0.51 | 0.51 | 60 | 1013.7 |
| 20260905211542 | 86 | 102 | 2.6 | 10.4 | 0.00 | 0.51 | 0.51 | 61 | 1013.9 |
| 20260905211008 | 85 | 252 | 2.6 | 10.4 | 0.00 | 0.51 | 0.51 | 61 | 1013.8 |
| 20260905210513 | 85 | 168 | 2.6 | 7.8 | 0.00 | 0.51 | 0.51 | 62 | 1013.7 |
| 20260905210043 | 85 | 119 | 0.9 | 7.8 | 0.00 | 0.51 | 0.51 | 63 | 1013.7 |
| 20260905205508 | 85 | 150 | 2.6 | 10.4 | 0.00 | 0.51 | 0.51 | 63 | 1013.6 |
| 20260905205011 | 84 | 99 | 3.5 | 10.4 | 0.00 | 0.51 | 0.51 | 64 | 1013.6 |
| 20260905204531 | 83 | 111 | 1.7 | 7.0 | 0.00 | 0.51 | 0.51 | 65 | 1013.5 |
| 20260905204007 | 82 | 161 | 1.7 | 6.1 | 0.00 | 0.51 | 0.51 | 66 | 1013.5 |
| 20260905203513 | 82 | 109 | 2.6 | 8.7 | 0.00 | 0.51 | 0.51 | 65 | 1013.5 |
| 20260905203038 | 81 | 84 | 1.7 | 8.7 | 0.00 | 0.51 | 0.51 | 65 | 1013.5 |
| 20260905202509 | 81 | 101 | 2.6 | 10.4 | 0.00 | 0.51 | 0.51 | 66 | 1013.4 |
| 20260905202014 | 81 | 136 | 4.3 | 10.4 | 0.00 | 0.51 | 0.51 | 67 | 1013.5 |
| 20260905201512 | 82 | 78 | 3.5 | 10.4 | 0.00 | 0.51 | 0.51 | 68 | 1013.5 |
| 20260905201013 | 82 | 123 | 3.5 | 8.7 | 0.00 | 0.51 | 0.51 | 69 | 1013.5 |
| 20260905200504 | 82 | 98 | 3.5 | 8.7 | 0.00 | 0.51 | 0.51 | 66 | 1013.6 |
| 20260905200015 | 83 | 109 | 0.9 | 9.6 | 0.00 | 0.51 | 0.51 | 64 | 1013.6 |
| 20260905195515 | 83 | 121 | 3.5 | 9.6 | 0.00 | 0.51 | 0.51 | 63 | 1013.5 |
| 20260905195004 | 83 | 132 | 2.6 | 7.0 | 0.00 | 0.51 | 0.51 | 64 | 1013.4 |
| 20260905194513 | 83 | 159 | 1.7 | 6.1 | 0.00 | 0.51 | 0.51 | 64 | 1013.3 |
| 20260905194013 | 84 | 173 | 1.7 | 7.0 | 0.00 | 0.51 | 0.51 | 63 | 1013.3 |
| 20260905193503 | 84 | 130 | 3.5 | 7.0 | 0.00 | 0.51 | 0.51 | 65 | 1013.3 |
| 20260905193017 | 84 | 93 | 1.7 | 6.1 | 0.00 | 0.51 | 0.51 | 64 | 1013.3 |
| 20260905192513 | 83 | 66 | 2.6 | 6.1 | 0.00 | 0.51 | 0.51 | 65 | 1013.2 |
| 20260905192005 | 83 | 90 | 3.5 | 6.1 | 0.00 | 0.51 | 0.51 | 63 | 1013.2 |
| 20260905191520 | 83 | 113 | 0.0 | 5.2 | 0.00 | 0.51 | 0.51 | 67 | 1013.3 |
| 20260905191018 | 82 | 135 | 0.9 | 5.2 | 0.00 | 0.51 | 0.51 | 65 | 1013.2 |
| 20260905190504 | 82 | 82 | 1.7 | 5.2 | 0.00 | 0.51 | 0.51 | 67 | 1013.2 |
| 20260905190023 | 82 | 57 | 1.7 | 5.2 | 0.00 | 0.51 | 0.51 | 66 | 1013.3 |
| 20260905185513 | 82 | 120 | 1.7 | 5.2 | 0.00 | 0.51 | 0.51 | 66 | 1013.4 |
| 20260905185002 | 82 | 130 | 0.9 | 4.3 | 0.00 | 0.51 | 0.51 | 65 | 1013.5 |
| 20260905184531 | 81 | 165 | 0.9 | 4.3 | 0.00 | 0.51 | 0.51 | 64 | 1013.7 |